Weather Roundup
Issued by NWS Springfield, MO

Home | Current Version | Previous Version | Text Only | Print | Product List | Glossary On
Versions: 1 2 3 4 5 6 7 8 9 10 11 12 13 14 15 16 17 18 19 20 21 22 23 24 25 26 27 28 29 30 31 32 33 34 35 36 37 38 39 40 41 42 43 44 45 46 47 48 49 50
000
NZUS99 KSGF 210359
HRRSGF

HOURLY WEATHER
NATIONAL WEATHER SERVICE SPRINGFIELD MO
1100 PM CDT WED AUG 20 2014

......SGF CWA......

CITY           SKY/WX    TMP DP  RH WIND       PRES   REMARKS
SPRINGFIELD    CLEAR     79  62  56 S12       29.99R
JOPLIN         CLEAR     80  64  58 S14       29.95R
WEST PLAINS    MOCLDY    82  60  47 S6        30.04R
ROLLA          PTCLDY    74  68  81 S7        29.97R
OSAGE BEACH    CLEAR     77  70  78 S5        29.96S
BRANSON        CLEAR     77  66  69 S7        30.02R

......SURROUNDING SGF CWA......

CITY           SKY/WX    TMP DP  RH WIND       PRES   REMARKS
CHANUTE        CLEAR     81  68  64 S15       29.91R
PARSONS        CLEAR     81  68  64 S7        29.92R
COFFEYVILLE    CLEAR     82  69  64 S12       29.90R
EMPORIA        CLEAR     80  68  66 S18       29.87R
SILOAM SPRINGS CLEAR     79  64  61 S12G18    30.01R
HARRISON AR    CLEAR     78  68  71 S9        30.03R
NEAR YELLVILLE CLEAR     81  63  54 S6        30.02R

......KANSAS AND MISSOURI......

CITY           SKY/WX    TMP DP  RH WIND       PRES   REMARKS
KANSAS CTY INT CLEAR     80  70  71 S13       29.88R
DOWNTOWN KC    CLEAR     85  67  54 S12       29.88R
COLUMBIA       CLEAR     74  72  93 SE7       29.95R
SEDALIA        CLEAR     78  70  76 S10       29.94R
ST JOSEPH      CLEAR     81  72  74 S10       29.85R
ST LOUIS       CLOUDY    76  72  87 SE6       29.98F
SPIRIT OF STL  CLOUDY    73  71  93 E6        29.96S
KIRKSVILLE     CLEAR     78  74  87 S8        29.91S
WICHITA        PTCLDY    82  65  56 S15       29.85R
TOPEKA         PTCLDY    85  68  56 S12G20    29.85R
OLATHE         CLEAR     79  67  66 S9        29.90R

......TENNESSEE......

CITY           SKY/WX    TMP DP  RH WIND       PRES   REMARKS
MEMPHIS        CLEAR     82  71  69 S5        30.06S
NASHVILLE      CLOUDY    72  71  97 S6        30.09F

......ARKANSAS.......

CITY           SKY/WX    TMP DP  RH WIND       PRES   REMARKS
FAYETTEVILLE   CLEAR     78  68  71 S12       30.01R
FT SMITH       CLEAR     80  71  74 NE5       29.97R
LITTLE ROCK    CLEAR     80  73  79 SE5       30.02R

......OKLAHOMA.......

CITY           SKY/WX    TMP DP  RH WIND       PRES   REMARKS
TULSA          PTCLDY    85  69  58 S17G24    29.90R
PONCA CITY     CLEAR     86  67  52 S12G25    29.87R
MCALESTER      CLEAR     83  70  64 SE7       29.95S
OKLAHOMA CITY  CLEAR     83  65  54 S13       29.91R

......IOWA............

CITY           SKY/WX    TMP DP  RH WIND       PRES   REMARKS
DES MOINES     MOCLDY    78  73  84 E5        29.84R
QUAD CITIES    CLEAR     70  67  90 E6        29.92R

......ILLINOIS........

CITY           SKY/WX    TMP DP  RH WIND       PRES   REMARKS
QUINCY         CLEAR     77  73  87 S7        29.91S
CHICAGO        MOCLDY    75  67  76 SW7       29.95R




USA.gov is the U.S. government's official web portal to all federal, state and local government web resources and services.